IBE237 SMJP-SYCJ

Flight info

Callsign IBE237
Flight time 0h 37m
Altitude 26000
Route GIGLO DCT KETIL DCT GEBON DCT SISEX
Aircraft A21N/M-SDE2E3FGHIRWXY/LB1

Departure

Time 2026-04-24 16:06
Airport Johan Adolf Pengel International Airport (SMJP)

Arrival

Time 2026-04-24 16:44
Airport Cheddi Jagan International Airport (SYCJ)
Time Latitude Longitude Altitude Speed Heading
2026-04-24 15:30 5.45516 -55.20060 61 ft 0 kts
2026-04-24 15:58 5.45514 -55.20061 69 ft 1 kts
2026-04-24 15:58 5.45498 -55.20061 62 ft 3 kts 356°
2026-04-24 15:59 5.45478 -55.20058 60 ft 3 kts 340°
2026-04-24 15:59 5.45462 -55.20050 55 ft 3 kts 312°
2026-04-24 15:59 5.45454 -55.20037 58 ft 2 kts 275°
2026-04-24 15:59 5.45454 -55.20034 60 ft 4 kts 272°
2026-04-24 16:02 5.45454 -55.20037 59 ft 1 kts 273°
2026-04-24 16:02 5.45455 -55.20055 62 ft 4 kts 273°
2026-04-24 16:02 5.45457 -55.20094 57 ft 7 kts 273°
2026-04-24 16:03 5.45460 -55.20152 61 ft 10 kts 273°
2026-04-24 16:03 5.45464 -55.20229 64 ft 12 kts 265°
2026-04-24 16:03 5.45449 -55.20323 62 ft 15 kts 241°
2026-04-24 16:03 5.45360 -55.20346 62 ft 12 kts 167°
2026-04-24 16:04 5.45283 -55.20351 64 ft 13 kts 127°
2026-04-24 16:04 5.45284 -55.20287 54 ft 6 kts 92°
2026-04-24 16:04 5.45284 -55.20285 54 ft 0 kts 92°
2026-04-24 16:05 5.45283 -55.20068 60 ft 72 kts 88°
2026-04-24 16:06 5.45289 -55.18154 224 ft 178 kts 90°
2026-04-24 16:06 5.45327 -55.16954 1108 ft 170 kts 88°
2026-04-24 16:06 5.45768 -55.14490 2529 ft 203 kts 66°
2026-04-24 16:07 5.46635 -55.13268 3179 ft 230 kts 46°
2026-04-24 16:07 5.48034 -55.12331 3874 ft 259 kts 24°
2026-04-24 16:07 5.51695 -55.12511 5799 ft 281 kts 334°
2026-04-24 16:08 5.53190 -55.13797 6803 ft 288 kts 307°
2026-04-24 16:08 5.53943 -55.17692 8699 ft 298 kts 261°
2026-04-24 16:09 5.54871 -55.21702 10346 ft 316 kts 306°
2026-04-24 16:09 5.56282 -55.23512 10748 ft 340 kts 310°
2026-04-24 16:09 5.57795 -55.25444 11161 ft 362 kts 308°
2026-04-24 16:09 5.59336 -55.27522 11624 ft 379 kts 306°
2026-04-24 16:10 5.64007 -55.34157 13819 ft 397 kts 304°
2026-04-24 16:11 5.67215 -55.38768 15127 ft 406 kts 304°
2026-04-24 16:11 5.68838 -55.41103 15778 ft 409 kts 304°
2026-04-24 16:11 5.70480 -55.43465 16441 ft 413 kts 304°
2026-04-24 16:12 5.73776 -55.48219 17646 ft 421 kts 304°
2026-04-24 16:12 5.75462 -55.50654 18242 ft 425 kts 304°
2026-04-24 16:12 5.78885 -55.55593 19262 ft 433 kts 305°
2026-04-24 16:13 5.80595 -55.58055 19777 ft 437 kts 305°
2026-04-24 16:13 5.84117 -55.63130 20858 ft 443 kts 304°
2026-04-24 16:14 5.87579 -55.68267 22003 ft 449 kts 299°
2026-04-24 16:14 5.88861 -55.71139 22530 ft 452 kts 287°
2026-04-24 16:14 5.89989 -55.77379 23585 ft 457 kts 276°
2026-04-24 16:15 5.90257 -55.79450 23848 ft 459 kts 277°
2026-04-24 16:15 5.91268 -55.86985 24665 ft 469 kts 277°
2026-04-24 16:16 5.92167 -55.93483 25506 ft 473 kts 277°
2026-04-24 16:16 5.92623 -55.96764 25868 ft 472 kts 278°
2026-04-24 16:17 5.93977 -56.06531 25989 ft 472 kts 278°
2026-04-24 16:17 5.94875 -56.13026 25979 ft 469 kts 278°
2026-04-24 16:18 5.95779 -56.19554 25975 ft 470 kts 278°
2026-04-24 16:18 5.96677 -56.26042 25976 ft 470 kts 278°
2026-04-24 16:18 5.97128 -56.29305 25977 ft 470 kts 278°
2026-04-24 16:19 5.98026 -56.35830 25977 ft 471 kts 278°
2026-04-24 16:19 5.98473 -56.39061 25978 ft 472 kts 278°
2026-04-24 16:20 5.99379 -56.45619 25975 ft 471 kts 278°
2026-04-24 16:20 6.00272 -56.52120 25973 ft 472 kts 278°
2026-04-24 16:20 6.00724 -56.55405 25973 ft 474 kts 278°
2026-04-24 16:21 6.01621 -56.61941 25972 ft 475 kts 278°
2026-04-24 16:21 6.02071 -56.65231 25970 ft 475 kts 278°
2026-04-24 16:21 6.02524 -56.68536 25970 ft 475 kts 278°
2026-04-24 16:22 6.02978 -56.71827 25972 ft 475 kts 278°
2026-04-24 16:22 6.03881 -56.78372 25970 ft 475 kts 278°
2026-04-24 16:22 6.04335 -56.81673 25970 ft 475 kts 278°
2026-04-24 16:23 6.04785 -56.84959 25971 ft 475 kts 278°
2026-04-24 16:23 6.05231 -56.88228 25971 ft 476 kts 278°
2026-04-24 16:23 6.05685 -56.91545 25970 ft 476 kts 278°
2026-04-24 16:24 6.06584 -56.98104 25953 ft 472 kts 278°
2026-04-24 16:24 6.07280 -57.01311 25612 ft 470 kts 287°
2026-04-24 16:24 6.08304 -57.04397 25346 ft 469 kts 289°
2026-04-24 16:24 6.09361 -57.07493 25103 ft 467 kts 289°
2026-04-24 16:25 6.10421 -57.10595 24873 ft 466 kts 289°
2026-04-24 16:25 6.11465 -57.13666 24647 ft 465 kts 289°
2026-04-24 16:25 6.12504 -57.16743 24426 ft 463 kts 289°
2026-04-24 16:26 6.14560 -57.22830 23997 ft 460 kts 289°
2026-04-24 16:26 6.15592 -57.25887 23740 ft 457 kts 289°
2026-04-24 16:26 6.17612 -57.31868 22334 ft 448 kts 289°
2026-04-24 16:27 6.18604 -57.34806 21530 ft 445 kts 289°
2026-04-24 16:27 6.19597 -57.37744 20767 ft 442 kts 289°
2026-04-24 16:27 6.20582 -57.40657 20031 ft 438 kts 288°
2026-04-24 16:27 6.21558 -57.43555 19316 ft 434 kts 288°
2026-04-24 16:28 6.22509 -57.46380 18658 ft 429 kts 288°
2026-04-24 16:28 6.23468 -57.49214 17981 ft 424 kts 288°
2026-04-24 16:28 6.25336 -57.54750 16591 ft 414 kts 288°
2026-04-24 16:29 6.26254 -57.57478 15937 ft 409 kts 288°
2026-04-24 16:29 6.27160 -57.60167 15327 ft 403 kts 288°
2026-04-24 16:29 6.28957 -57.65494 14120 ft 402 kts 288°
2026-04-24 16:30 6.30732 -57.70771 12849 ft 395 kts 288°
2026-04-24 16:30 6.31606 -57.73369 12235 ft 389 kts 289°
2026-04-24 16:30 6.32471 -57.75935 11635 ft 384 kts 289°
2026-04-24 16:31 6.33190 -57.78451 11211 ft 375 kts 279°
2026-04-24 16:31 6.33412 -57.81023 10966 ft 361 kts 272°
2026-04-24 16:31 6.33528 -57.83519 10826 ft 352 kts 271°
2026-04-24 16:31 6.33640 -57.85973 10681 ft 348 kts 272°
2026-04-24 16:32 6.33720 -57.87582 10560 ft 344 kts 273°
2026-04-24 16:32 6.33882 -57.90717 10317 ft 332 kts 272°
2026-04-24 16:32 6.34000 -57.93008 10171 ft 323 kts 272°
2026-04-24 16:32 6.34114 -57.95199 10006 ft 312 kts 272°
2026-04-24 16:33 6.34228 -57.97371 9612 ft 310 kts 272°
2026-04-24 16:33 6.34340 -57.99537 9144 ft 310 kts 272°
2026-04-24 16:33 6.34450 -58.01673 8735 ft 307 kts 272°
2026-04-24 16:33 6.34562 -58.03826 8368 ft 306 kts 272°
2026-04-24 16:34 6.34673 -58.05966 8036 ft 304 kts 272°
2026-04-24 16:34 6.34783 -58.08056 7649 ft 302 kts 272°
2026-04-24 16:34 6.34892 -58.10162 7247 ft 300 kts 272°
2026-04-24 16:34 6.35000 -58.12251 6854 ft 298 kts 272°
2026-04-24 16:35 6.35105 -58.14332 6543 ft 297 kts 272°
2026-04-24 16:35 6.35175 -58.15704 6389 ft 296 kts 272°
2026-04-24 16:35 6.35316 -58.18425 6069 ft 293 kts 272°
2026-04-24 16:35 6.35423 -58.20481 5771 ft 294 kts 272°
2026-04-24 16:36 6.35494 -58.21841 5643 ft 291 kts 273°
2026-04-24 16:36 6.35600 -58.23883 5428 ft 293 kts 272°
2026-04-24 16:36 6.35701 -58.25939 5315 ft 296 kts 274°
2026-04-24 16:36 6.35812 -58.28010 5153 ft 294 kts 273°
2026-04-24 16:37 6.35918 -58.30023 5002 ft 288 kts 273°
2026-04-24 16:37 6.36023 -58.32005 4829 ft 276 kts 273°
2026-04-24 16:37 6.36120 -58.33885 4682 ft 263 kts 273°
2026-04-24 16:37 6.36213 -58.35687 4560 ft 251 kts 273°
2026-04-24 16:38 6.36308 -58.37392 4438 ft 238 kts 275°
2026-04-24 16:38 6.36709 -58.38941 4273 ft 224 kts 301°
2026-04-24 16:38 6.37717 -58.40007 4077 ft 208 kts 334°
2026-04-24 16:38 6.39053 -58.40370 3793 ft 196 kts
2026-04-24 16:39 6.40341 -58.40032 3418 ft 190 kts 31°
2026-04-24 16:39 6.41304 -58.39159 3074 ft 184 kts 59°
2026-04-24 16:39 6.41706 -58.38041 2988 ft 162 kts 83°
2026-04-24 16:39 6.41704 -58.36979 2966 ft 146 kts 92°
2026-04-24 16:40 6.41688 -58.35984 2980 ft 140 kts 90°
2026-04-24 16:40 6.41694 -58.35018 2985 ft 139 kts 89°
2026-04-24 16:40 6.41782 -58.34055 3000 ft 139 kts 78°
2026-04-24 16:40 6.42235 -58.33201 3005 ft 141 kts 54°
2026-04-24 16:41 6.42877 -58.32466 2995 ft 136 kts 49°
2026-04-24 16:41 6.43535 -58.31771 2629 ft 137 kts 49°
2026-04-24 16:41 6.44209 -58.31080 2150 ft 137 kts 49°
2026-04-24 16:41 6.44878 -58.30406 1662 ft 139 kts 47°
2026-04-24 16:42 6.45569 -58.29712 1281 ft 138 kts 46°
2026-04-24 16:42 6.46243 -58.29036 996 ft 136 kts 47°
2026-04-24 16:42 6.46913 -58.28363 693 ft 137 kts 45°
2026-04-24 16:42 6.47595 -58.27679 520 ft 140 kts 49°
2026-04-24 16:43 6.48279 -58.26995 497 ft 140 kts 49°
2026-04-24 16:43 6.48972 -58.26302 395 ft 143 kts 47°
2026-04-24 16:43 6.49675 -58.25593 111 ft 140 kts 47°
2026-04-24 16:43 6.50284 -58.24985 101 ft 95 kts 45°
2026-04-24 16:44 6.50610 -58.24654 96 ft 38 kts 50°
2026-04-24 16:44 6.50672 -58.24620 94 ft 13 kts 206°
2026-04-24 16:44 6.50649 -58.24675 94 ft 0 kts 281°
2026-04-24 16:44 6.50650 -58.24677 94 ft 3 kts 281°
2026-04-24 16:45 6.50651 -58.24737 94 ft 12 kts 263°
2026-04-24 16:45 6.50617 -58.24805 95 ft 12 kts 233°
2026-04-24 16:45 6.50550 -58.24876 96 ft 16 kts 225°
2026-04-24 16:45 6.50464 -58.24962 97 ft 19 kts 224°
2026-04-24 16:46 6.50374 -58.25049 99 ft 16 kts 223°
2026-04-24 16:46 6.50347 -58.25122 101 ft 11 kts 289°
2026-04-24 16:46 6.50303 -58.25199 100 ft 15 kts 224°
2026-04-24 16:46 6.50286 -58.25237 102 ft 3 kts 303°
2026-04-24 16:47 6.50300 -58.25252 102 ft 5 kts 326°
2026-04-24 16:47 6.50305 -58.25257 102 ft 0 kts 312°